This is the latest recevied weather packets stored in our database for station/object ED5YAL-15. If no packets are shown the sender has not sent any weather packets the latest 10 day(s).
| Time | Temp. | Humidity | Pressure | Rain* | Wind** | Luminosity | Snow |
|---|---|---|---|---|---|---|---|
| 1777641403 | 22.22° C | 53% | 1023.5 hPa | - | - | - | - |
| 1777640504 | 21.11° C | 54% | 1023.7 hPa | - | - | - | - |
| 1777639598 | 17.22° C | 55% | 1023.6 hPa | - | - | - | - |
| 1777638697 | 16.67° C | 54% | 1023.5 hPa | - | - | - | - |
| 1777637796 | 17.78° C | 54% | 1023.5 hPa | - | - | - | - |
| 1777636895 | 17.78° C | 54% | 1024.1 hPa | - | - | - | - |
| 1777635995 | 17.78° C | 53% | 1023.7 hPa | - | - | - | - |
| 1777635094 | 18.89° C | 52% | 1023.7 hPa | - | - | - | - |
| 1777634193 | 17.78° C | 52% | 1023.5 hPa | - | - | - | - |
| 1777633326 | 17.22° C | 53% | 1023.6 hPa | - | - | - | - |
| 1777633292 | 17.22° C | 53% | 1023.6 hPa | - | - | - | - |
| 1777632391 | 16.11° C | 53% | 1023.5 hPa | - | - | - | - |
| 1777631491 | 15° C | 53% | 1023.7 hPa | - | - | - | - |
| 1777630596 | 15° C | 53% | 1023.6 hPa | - | - | - | - |
| 1777629692 | 16.11° C | 51% | 1023.7 hPa | - | - | - | - |
| 1777628788 | 17.78° C | 51% | 1023.6 hPa | - | - | - | - |
| 1777627887 | 17.22° C | 50% | 1023.8 hPa | - | - | - | - |
| 1777626986 | 19.44° C | 49% | 1023.4 hPa | - | - | - | - |
| 1777626089 | 20.56° C | 50% | 1023.3 hPa | - | - | - | - |
| 1777625218 | 20.56° C | 49% | 1023 hPa | - | - | - | - |
| 1777625185 | 20.56° C | 49% | 1023 hPa | - | - | - | - |
| 1777624284 | 20° C | 50% | 1022.9 hPa | - | - | - | - |
| 1777623383 | 22.22° C | 50% | 1022.6 hPa | - | - | - | - |
| 1777622508 | 21.11° C | 49% | 1022.6 hPa | - | - | - | - |
| 1777621601 | 22.22° C | 49% | 1022.5 hPa | - | - | - | - |
* Rain since midnight (hover to see other rain measurements)
** Current wind speed in m/s (hover to see current wind gust speed)